TimeEST,TemperatureF,Dew PointF,Humidity,Sea Level PressureIn,VisibilityMPH,Wind Direction,Wind SpeedMPH,Gust SpeedMPH,PrecipitationIn,Events,Conditions,WindDirDegrees,DateUTC
12:15 AM,50.0,50.0,100,29.88,2.5,South,9.2,17.3,N/A,,Overcast,180,2012-12-05 05:15:00
12:35 AM,50.0,50.0,100,29.87,3.0,South,11.5,17.3,N/A,,Overcast,190,2012-12-05 05:35:00
12:55 AM,51.8,50.0,94,29.86,3.0,South,9.2,-,N/A,,Overcast,190,2012-12-05 05:55:00
1:15 AM,51.8,50.0,94,29.85,3.0,South,11.5,20.7,N/A,,Overcast,190,2012-12-05 06:15:00
1:35 AM,51.8,51.8,100,29.84,3.0,South,9.2,18.4,N/A,,Overcast,180,2012-12-05 06:35:00
1:55 AM,51.8,51.8,100,29.83,3.0,South,8.1,18.4,N/A,,Overcast,180,2012-12-05 06:55:00
2:15 AM,51.8,51.8,100,29.82,3.0,South,8.1,16.1,N/A,,Overcast,190,2012-12-05 07:15:00
2:56 AM,51.8,51.8,100,29.80,3.0,South,9.2,17.3,N/A,,Overcast,190,2012-12-05 07:56:00
3:15 AM,51.8,51.8,100,29.78,4.0,South,11.5,20.7,N/A,,Overcast,190,2012-12-05 08:15:00
3:35 AM,51.8,51.8,100,29.76,4.0,South,11.5,20.7,N/A,,Overcast,180,2012-12-05 08:35:00
4:15 AM,51.8,51.8,100,29.74,4.0,South,9.2,19.6,N/A,,Overcast,180,2012-12-05 09:15:00
4:35 AM,51.8,51.8,100,29.72,4.0,South,8.1,-,N/A,,Overcast,190,2012-12-05 09:35:00
4:55 AM,51.8,51.8,100,29.72,3.0,South,6.9,17.3,N/A,,Overcast,180,2012-12-05 09:55:00
5:15 AM,51.8,50.0,94,29.72,3.0,SSW,8.1,17.3,N/A,,Overcast,200,2012-12-05 10:15:00
5:35 AM,50.0,48.2,94,29.76,7.0,WNW,12.7,23.0,N/A,,Overcast,290,2012-12-05 10:35:00
5:55 AM,48.2,46.4,93,29.75,10.0,WNW,9.2,-,0.13,,Overcast,300,2012-12-05 10:55:00
6:15 AM,48.2,46.4,93,29.76,10.0,West,5.8,-,0.01,,Overcast,280,2012-12-05 11:15:00
6:35 AM,48.2,46.4,93,29.76,10.0,WNW,10.4,-,0.03,,Overcast,300,2012-12-05 11:35:00
6:55 AM,48.2,44.6,87,29.77,10.0,WNW,5.8,-,0.07,,Overcast,300,2012-12-05 11:55:00
7:15 AM,48.2,44.6,87,29.77,10.0,WNW,4.6,-,0.02,,Overcast,290,2012-12-05 12:15:00
7:35 AM,46.4,44.6,93,29.77,10.0,WNW,5.8,-,0.03,,Overcast,300,2012-12-05 12:35:00
7:55 AM,46.4,44.6,93,29.76,10.0,WNW,4.6,-,0.03,,Overcast,290,2012-12-05 12:55:00
9:55 AM,48.2,46.4,93,29.79,10.0,WSW,3.5,-,N/A,,Mostly Cloudy,240,2012-12-05 14:55:00
10:15 AM,50.0,44.6,82,29.79,10.0,NW,6.9,-,N/A,,Overcast,310,2012-12-05 15:15:00
10:35 AM,48.2,39.2,71,29.79,10.0,NW,10.4,18.4,N/A,,Mostly Cloudy,320,2012-12-05 15:35:00
10:55 AM,48.2,39.2,71,29.79,10.0,NW,10.4,16.1,N/A,,Clear,310,2012-12-05 15:55:00
11:35 AM,48.2,37.4,66,29.78,10.0,WSW,4.6,-,N/A,,Partly Cloudy,250,2012-12-05 16:35:00
11:55 AM,50.0,37.4,62,29.78,10.0,WSW,5.8,-,N/A,,Scattered Clouds,240,2012-12-05 16:55:00
12:15 PM,51.8,35.6,54,29.78,10.0,West,9.2,-,N/A,,Mostly Cloudy,280,2012-12-05 17:15:00
12:35 PM,50.0,33.8,54,29.78,10.0,West,9.2,16.1,N/A,,Scattered Clouds,270,2012-12-05 17:35:00
12:55 PM,46.4,33.8,62,29.80,10.0,WNW,15.0,25.3,N/A,,Mostly Cloudy,300,2012-12-05 17:55:00
1:55 PM,44.6,30.2,57,29.82,10.0,NW,19.6,26.5,N/A,,Partly Cloudy,310,2012-12-05 18:55:00
2:15 PM,42.8,28.4,57,29.83,10.0,NW,19.6,26.5,N/A,,Scattered Clouds,320,2012-12-05 19:15:00
2:35 PM,42.8,28.4,57,29.83,10.0,NW,15.0,26.5,N/A,,Mostly Cloudy,320,2012-12-05 19:35:00
2:55 PM,41.0,26.6,57,29.84,10.0,NNW,15.0,23.0,N/A,,Overcast,330,2012-12-05 19:55:00
3:15 PM,41.0,24.8,53,29.85,10.0,NW,13.8,24.2,N/A,,Overcast,310,2012-12-05 20:15:00
3:35 PM,39.2,24.8,56,29.86,10.0,NW,16.1,23.0,N/A,,Overcast,310,2012-12-05 20:35:00
3:55 PM,39.2,24.8,56,29.86,10.0,NW,16.1,27.6,N/A,,Overcast,310,2012-12-05 20:55:00
4:15 PM,39.2,24.8,56,29.87,10.0,WNW,12.7,24.2,N/A,,Overcast,300,2012-12-05 21:15:00
4:35 PM,39.2,23.0,52,29.87,10.0,WNW,19.6,23.0,N/A,,Overcast,290,2012-12-05 21:35:00
4:55 PM,39.2,23.0,52,29.88,10.0,WNW,18.4,26.5,N/A,,Overcast,300,2012-12-05 21:55:00
5:15 PM,37.4,21.2,52,29.89,10.0,WNW,13.8,24.2,N/A,,Overcast,290,2012-12-05 22:15:00
5:35 PM,37.4,21.2,52,29.90,10.0,WNW,19.6,26.5,N/A,,Overcast,300,2012-12-05 22:35:00
5:55 PM,37.4,21.2,52,29.91,10.0,WNW,16.1,25.3,N/A,,Overcast,300,2012-12-05 22:55:00
6:15 PM,37.4,21.2,52,29.91,10.0,WNW,16.1,23.0,N/A,,Overcast,290,2012-12-05 23:15:00
6:35 PM,37.4,21.2,52,29.92,10.0,WNW,9.2,-,N/A,,Overcast,290,2012-12-05 23:35:00
6:55 PM,37.4,21.2,52,29.93,10.0,WNW,6.9,-,N/A,,Overcast,300,2012-12-05 23:55:00
7:15 PM,35.6,21.2,56,29.93,10.0,WNW,12.7,18.4,N/A,,Overcast,300,2012-12-06 00:15:00
7:35 PM,35.6,19.4,52,29.94,10.0,WNW,16.1,20.7,N/A,,Overcast,300,2012-12-06 00:35:00
7:55 PM,35.6,17.6,48,29.94,10.0,NW,11.5,20.7,N/A,,Overcast,320,2012-12-06 00:55:00
8:15 PM,35.6,19.4,52,29.95,10.0,NNW,15.0,19.6,N/A,,Overcast,340,2012-12-06 01:15:00
8:35 PM,33.8,15.8,48,29.96,10.0,NNW,12.7,27.6,N/A,,Overcast,330,2012-12-06 01:35:00
8:55 PM,32.0,15.8,51,29.97,10.0,NNW,20.7,26.5,N/A,,Mostly Cloudy,330,2012-12-06 01:55:00
9:15 PM,30.2,15.8,55,29.97,10.0,NNW,11.5,21.9,N/A,,Overcast,340,2012-12-06 02:15:00
9:35 PM,32.0,15.8,51,29.98,10.0,NNW,15.0,18.4,N/A,,Overcast,340,2012-12-06 02:35:00
9:55 PM,32.0,15.8,51,29.98,10.0,NNW,10.4,16.1,N/A,,Overcast,330,2012-12-06 02:55:00
10:15 PM,32.0,15.8,51,29.99,10.0,NNW,10.4,-,N/A,,Overcast,330,2012-12-06 03:15:00
10:35 PM,32.0,15.8,51,29.99,10.0,NW,4.6,-,N/A,,Overcast,310,2012-12-06 03:35:00
10:55 PM,30.2,17.6,60,29.99,10.0,NNW,10.4,-,N/A,,Overcast,340,2012-12-06 03:55:00
11:15 PM,32.0,17.6,55,30.00,10.0,NNW,20.7,26.5,N/A,,Overcast,330,2012-12-06 04:15:00
11:35 PM,30.2,17.6,60,30.01,10.0,NNW,17.3,25.3,N/A,,Overcast,330,2012-12-06 04:35:00
11:55 PM,30.2,17.6,60,30.01,10.0,NNW,17.3,28.8,N/A,,Overcast,330,2012-12-06 04:55:00